Regional Weather Roundup
Issued by NWS Sioux Falls, SD

Home | Current Version | Previous Version | Text Only | Print | Product List | Glossary Off
Versions: 1 2 3 4 5 6 7 8 9 10 11 12 13 14 15 16 17 18 19 20 21 22 23 24 25 26 27 28 29 30 31 32 33 34 35 36 37 38 39 40 41 42 43 44 45 46 47 48 49 50

000
ASUS43 KFSD 221502
RWRFSD

WEATHER ROUNDUP FOR SE SOUTH DAKOTA/SW MINNESOTA/NW IOWA
NATIONAL WEATHER SERVICE SIOUX FALLS SD
1000 AM CDT THU JUN 22 2017

NOTE: "FAIR" INDICATES FEW OR NO CLOUDS BELOW 12,000 FEET WITH NO
SIGNIFICANT WEATHER AND OR OBSTRUCTIONS TO VISIBILITY.


SDZ038>040-050-052>070-221600-
SOUTHEAST SOUTH DAKOTA

CITY           SKY/WX    TMP DP  RH WIND       PRES   REMARKS
BROOKINGS      CLOUDY    64  61  90 NE8       29.72F
CHAMBERLAIN    CLOUDY    65  61  86 W3        29.78R
HURON          CLOUDY    59  58  96 N9        29.72F
MADISON        FAIR      66  66 100 E13       29.73F
MITCHELL       CLOUDY    69  59  70 NE8       29.73R
SIOUX FALLS    CLOUDY    71  63  75 NE14      29.71R
WINNER         CLOUDY    68  58  70 N10       29.80R
YANKTON        CLOUDY    75  60  59 NE21G30   29.68
$$

MNZ071-072-080-081-089-090-097-098-221600-
SOUTHWEST MINNESOTA

CITY           SKY/WX    TMP DP  RH WIND       PRES   REMARKS
FAIRMONT       TSTM      68  64  87 E9        29.71S
JACKSON        CLOUDY    64  64 100 N10       29.73R
LUVERNE        CLOUDY    68  61  77 NE9G18    29.72S
MARSHALL       LGT RAIN  67  63  87 NE10      29.78R
MONTEVIDEO     RAIN      61  57  88 W3        29.78R
PIPESTONE      CLOUDY    66  64  94 E8        29.74R
REDWOOD FALLS  LGT RAIN  66  63  90 E5        29.76R FOG
TRACY          TSTM      69  68  98 E9        29.76R
WINDOM         CLOUDY    68  64  88 N8        29.76S
WORTHINGTON    CLOUDY    67  65  93 NE10      29.73F
$$

IAZ001>003-012>014-020>022-031-032-NEZ013-014-SDZ071-221600-
NORTHWEST IOWA

CITY           SKY/WX    TMP DP  RH WIND       PRES   REMARKS
CHEROKEE       SUNNY     79  65  62 CALM      29.68F
DENISON        SUNNY     81  63  54 SW9G18    29.68S
ESTHERVILLE    CLOUDY    65  64  97 NE14G25   29.70F THUNDER
LE MARS        SUNNY     77  66  69 NE10G18   29.67S
ORANGE CITY    CLOUDY    72  63  73 NE15G28   29.70R
SHELDON        MOSUNNY   70  63  78 NE17G25   29.70S
SIOUX CITY     SUNNY     84  63  49 W5        29.64R
SPENCER        CLOUDY    72  61  68 NE22G28   29.72S
STORM LAKE       N/A     81  63  54 VRB5G12   29.69S
$$

ABBREVIATIONS USED IN REMARKS
   TC - TEMPERATURE IN CELSIUS
  WCI - WIND CHILL INDEX
   HX - HEAT INDEX
  VSB - VISIBILITY





USA.gov is the U.S. government's official web portal to all federal, state and local government web resources and services.